ASIASTAR                
1 26107U 00016A   19260.88946034 -.00000337  00000-0  00000-0 0  9997
2 26107   3.4071  78.6879 0004201  97.4382 245.6149  1.00274799 71219
INSAT-3B                
1 26108U 00016B   19261.39042451  .00000081  00000-0  00000+0 0  9999
2 26108   5.8547  62.4771 0006002 179.9671 130.5823  0.99655682 71193
ARIANE 5 DEB [SYLDA]    
1 26109U 00016C   19261.40739663  .00000033  00000-0  58020-3 0  9996
2 26109   6.4399 136.0039 7156313 147.9367 202.5524  2.27360592161639
ARIANE 5 R/B            
1 26110U 00016D   19260.28004981 -.00000160  00000-0  56039-4 0  9992
2 26110   6.6227 237.3712 7088715 313.7166   5.9504  2.27177014161791